Total_Precipitation_Accumulation
0.00 0.00 0.01 0.01 0.00 0.01 0.02 0.02 0.06 0.07 0.04 0.02 0.01 0.01 0.03 0.04 0.06 0.06 0.07 0.11 0.17 0.26 0.44 0.66 0.99 1.32 1.65 2.02 2.49 2.69 2.63 2.20 1.74 1.56 1.37 1.28 1.18 1.14 1.18 1.19 1.15 1.10 1.00 0.99
0.01 0.02 0.02 0.00 0.00 0.00 0.01 0.02 0.05 0.06 0.02 0.00 0.00 0.01 0.02 0.03 0.03 0.04 0.06 0.12 0.22 0.38 0.64 1.03 1.47 1.69 1.65 1.91 2.39 2.44 1.99 1.54 1.26 1.11 1.00 0.89 0.87 0.87 0.85 0.82 0.80 0.78 0.79 0.84
0.02 0.03 0.01 0.00 0.00 0.01 0.02 0.03 0.05 0.06 0.02 0.01 0.01 0.08 0.11 0.05 0.04 0.06 0.09 0.16 0.28 0.50 0.82 1.16 1.50 1.59 1.49 1.70 1.74 1.45 1.16 0.90 0.71 0.61 0.57 0.60 0.57 0.56 0.51 0.46 0.46 0.52 0.57 0.58
0.01 0.01 0.00 0.00 0.01 0.01 0.03 0.02 0.01 0.01 0.01 0.04 0.07 0.21 0.32 0.25 0.12 0.11 0.15 0.24 0.30 0.37 0.52 0.75 0.94 1.07 1.14 1.15 1.00 0.82 0.70 0.59 0.53 0.53 0.47 0.53 0.47 0.42 0.38 0.33 0.34 0.38 0.41 0.41
0.02 0.01 0.01 0.01 0.00 0.00 0.01 0.01 0.00 0.01 0.02 0.06 0.15 0.29 0.41 0.48 0.35 0.27 0.31 0.32 0.29 0.25 0.29 0.41 0.46 0.53 0.60 0.61 0.56 0.46 0.53 0.60 0.55 0.52 0.46 0.42 0.36 0.31 0.28 0.31 0.34 0.39 0.41 0.41
0.03 0.02 0.01 0.00 0.00 0.01 0.01 0.01 0.02 0.06 0.10 0.24 0.29 0.31 0.48 0.52 0.47 0.42 0.37 0.29 0.24 0.21 0.26 0.30 0.28 0.25 0.25 0.26 0.25 0.25 0.32 0.41 0.41 0.41 0.40 0.37 0.34 0.32 0.29 0.28 0.30 0.32 0.36 0.38
0.10 0.06 0.03 0.02 0.02 0.02 0.02 0.03 0.10 0.29 0.40 0.46 0.32 0.28 0.42 0.45 0.50 0.53 0.36 0.23 0.17 0.16 0.18 0.21 0.21 0.18 0.16 0.14 0.13 0.12 0.14 0.23 0.27 0.29 0.32 0.32 0.32 0.31 0.29 0.25 0.25 0.26 0.26 0.31
0.09 0.09 0.03 0.02 0.03 0.04 0.03 0.03 0.05 0.07 0.11 0.15 0.16 0.32 0.40 0.37 0.42 0.34 0.18 0.10 0.08 0.09 0.09 0.11 0.11 0.10 0.09 0.08 0.07 0.06 0.06 0.08 0.09 0.13 0.17 0.19 0.22 0.23 0.25 0.31 0.29 0.25 0.24 0.27
0.02 0.02 0.01 0.02 0.03 0.04 0.03 0.03 0.03 0.03 0.03 0.07 0.16 0.32 0.30 0.27 0.30 0.19 0.10 0.05 0.04 0.05 0.05 0.05 0.05 0.05 0.04 0.04 0.04 0.04 0.04 0.04 0.05 0.05 0.08 0.10 0.14 0.18 0.24 0.30 0.28 0.24 0.24 0.23
0.00 0.00 0.01 0.01 0.02 0.03 0.03 0.03 0.02 0.03 0.04 0.05 0.11 0.32 0.43 0.36 0.31 0.17 0.08 0.04 0.03 0.03 0.03 0.03 0.03 0.03 0.03 0.02 0.02 0.02 0.03 0.03 0.03 0.03 0.03 0.05 0.11 0.19 0.26 0.30 0.26 0.23 0.21 0.20
0.00 0.00 0.01 0.01 0.02 0.03 0.04 0.04 0.03 0.04 0.05 0.05 0.07 0.20 0.22 0.25 0.20 0.11 0.06 0.04 0.01 0.01 0.01 0.01 0.01 0.01 0.01 0.01 0.01 0.02 0.02 0.02 0.02 0.02 0.03 0.07 0.16 0.21 0.27 0.42 0.40 0.25 0.19 0.17
0.00 0.00 0.01 0.02 0.04 0.04 0.05 0.05 0.04 0.05 0.05 0.04 0.06 0.14 0.10 0.11 0.09 0.06 0.04 0.02 0.01 0.01 0.00 0.00 0.00 0.01 0.01 0.01 0.01 0.01 0.02 0.02 0.02 0.02 0.02 0.05 0.15 0.20 0.23 0.30 0.33 0.26 0.21 0.17
0.00 0.00 0.01 0.07 0.10 0.07 0.05 0.04 0.04 0.05 0.04 0.03 0.11 0.18 0.08 0.05 0.04 0.03 0.02 0.01 0.00 0.00 0.00 0.00 0.00 0.00 0.01 0.01 0.01 0.01 0.01 0.01 0.01 0.02 0.03 0.05 0.07 0.08 0.10 0.12 0.15 0.20 0.22 0.23
0.00 0.01 0.01 0.03 0.03 0.03 0.04 0.05 0.08 0.06 0.06 0.07 0.11 0.17 0.07 0.03 0.01 0.01 0.00 0.00 0.00 0.00 0.00 0.00 0.00 0.00 0.00 0.00 0.00 0.01 0.01 0.01 0.01 0.02 0.03 0.04 0.04 0.04 0.05 0.07 0.12 0.17 0.20 0.22
0.00 0.00 0.00 0.00 0.01 0.02 0.03 0.05 0.06 0.05 0.06 0.10 0.08 0.08 0.04 0.01 0.01 0.01 0.00 0.00 0.00 0.00 0.01 0.01 0.01 0.01 0.01 0.01 0.01 0.01 0.01 0.02 0.02 0.04 0.09 0.09 0.07 0.06 0.06 0.08 0.10 0.12 0.13 0.13
0.00 0.00 0.00 0.00 0.02 0.01 0.03 0.06 0.05 0.02 0.02 0.02 0.02 0.03 0.01 0.02 0.02 0.02 0.02 0.02 0.02 0.02 0.02 0.02 0.02 0.02 0.01 0.01 0.02 0.01 0.02 0.02 0.04 0.08 0.14 0.17 0.14 0.08 0.06 0.06 0.07 0.10 0.10 0.12
0.00 0.00 0.00 0.01 0.02 0.02 0.08 0.07 0.03 0.01 0.02 0.03 0.04 0.05 0.04 0.05 0.05 0.07 0.07 0.06 0.05 0.04 0.03 0.02 0.01 0.01 0.01 0.01 0.01 0.02 0.02 0.03 0.10 0.13 0.11 0.18 0.20 0.10 0.06 0.07 0.09 0.12 0.13 0.17
0.00 0.00 0.00 0.01 0.01 0.07 0.08 0.02 0.01 0.01 0.02 0.03 0.05 0.06 0.08 0.09 0.09 0.09 0.10 0.08 0.04 0.02 0.01 0.00 0.00 0.00 0.00 0.00 0.01 0.02 0.05 0.05 0.13 0.16 0.12 0.19 0.21 0.13 0.13 0.15 0.17 0.19 0.22 0.26
0.00 0.00 0.00 0.00 0.01 0.05 0.04 0.02 0.03 0.04 0.05 0.06 0.08 0.11 0.11 0.09 0.06 0.04 0.03 0.02 0.01 0.00 0.00 0.00 0.00 0.00 0.00 0.01 0.01 0.03 0.08 0.11 0.12 0.15 0.14 0.21 0.27 0.24 0.24 0.25 0.28 0.32 0.36 0.38
0.00 0.00 0.00 0.01 0.01 0.04 0.05 0.04 0.06 0.07 0.14 0.12 0.09 0.07 0.04 0.02 0.03 0.01 0.00 0.00 0.00 0.00 0.00 0.00 0.00 0.00 0.01 0.02 0.04 0.05 0.08 0.13 0.15 0.16 0.18 0.24 0.37 0.42 0.39 0.39 0.41 0.43 0.50 0.53
0.00 0.01 0.01 0.02 0.04 0.06 0.03 0.04 0.05 0.12 0.15 0.05 0.02 0.02 0.02 0.02 0.03 0.01 0.00 0.01 0.01 0.00 0.00 0.01 0.01 0.01 0.03 0.05 0.08 0.12 0.13 0.16 0.18 0.20 0.24 0.30 0.43 0.57 0.56 0.55 0.55 0.57 0.59 0.65
0.00 0.01 0.01 0.03 0.08 0.12 0.02 0.02 0.05 0.06 0.04 0.02 0.02 0.02 0.02 0.02 0.01 0.01 0.01 0.01 0.01 0.01 0.01 0.02 0.03 0.05 0.06 0.10 0.17 0.22 0.23 0.23 0.26 0.28 0.31 0.37 0.50 0.55 0.58 0.66 0.71 0.79 0.81 0.82
0.00 0.01 0.02 0.04 0.07 0.03 0.00 0.01 0.02 0.02 0.02 0.02 0.02 0.02 0.02 0.02 0.02 0.02 0.03 0.02 0.02 0.01 0.02 0.03 0.05 0.08 0.12 0.17 0.27 0.36 0.37 0.38 0.39 0.38 0.39 0.44 0.52 0.65 0.79 0.84 0.81 0.86 0.94 0.98
0.00 0.00 0.01 0.03 0.02 0.01 0.01 0.01 0.02 0.01 0.02 0.02 0.01 0.01 0.01 0.03 0.04 0.05 0.05 0.04 0.03 0.03 0.03 0.04 0.07 0.12 0.17 0.25 0.37 0.46 0.49 0.51 0.50 0.45 0.43 0.47 0.57 0.67 0.80 0.95 0.98 1.03 1.05 1.06
0.00 0.00 0.01 0.02 0.01 0.00 0.01 0.01 0.01 0.01 0.01 0.01 0.00 0.01 0.02 0.04 0.05 0.06 0.06 0.06 0.05 0.04 0.04 0.06 0.11 0.16 0.20 0.30 0.45 0.53 0.57 0.60 0.58 0.52 0.47 0.48 0.55 0.64 0.73 0.86 0.96 1.00 1.02 0.96
0.00 0.00 0.00 0.01 0.00 0.00 0.01 0.00 0.00 0.00 0.01 0.01 0.01 0.01 0.02 0.03 0.04 0.04 0.05 0.04 0.04 0.04 0.07 0.11 0.15 0.21 0.25 0.31 0.42 0.51 0.65 0.77 0.79 0.70 0.60 0.54 0.53 0.61 0.68 0.78 0.81 0.73 0.72 0.70